Probability
35 52 68 74 74 81 81 87 84 84 84 87 84 90 84 84 84 74 77 71 77 81 81 74 77 81 77 77 74 77 77 77 77 77 84 81 74 71 65 55 45 55 71
26 45 68 77 84 84 87 87 94 87 87 87 90 84 81 81 84 77 77 74 74 74 81 81 81 77 77 74 74 74 77 81 81 81 81 77 68 71 68 65 58 58 74
32 42 58 74 81 87 90 87 90 94 87 84 87 87 81 77 74 77 81 74 68 71 71 77 84 84 81 81 81 81 87 81 77 71 71 55 55 68 68 52 61 74 71
26 42 52 71 81 84 84 87 87 87 90 84 74 74 74 77 77 81 81 71 68 71 71 77 81 77 81 77 77 81 84 77 81 71 52 42 45 55 65 61 61 65 61
32 39 61 71 77 81 84 87 81 81 81 84 74 74 71 71 74 71 74 68 68 61 68 77 81 81 81 77 81 84 81 74 68 52 39 48 55 58 71 61 61 58 58
26 32 45 71 71 81 87 77 74 77 81 74 74 71 68 68 68 68 68 61 65 65 65 74 81 81 77 74 84 84 74 68 55 32 35 45 58 68 61 65 58 55 61
16 32 45 74 71 77 81 84 74 74 81 77 81 81 77 77 74 68 65 61 58 65 74 68 71 74 77 84 87 77 77 61 42 32 42 39 58 68 58 61 55 61 58
13 29 42 68 74 74 74 77 81 77 77 81 77 74 74 71 74 61 58 58 58 55 58 65 61 68 71 71 74 74 68 65 16 10 32 32 48 61 48 55 58 65 61
13 29 55 52 58 71 71 71 71 74 71 71 74 74 65 58 58 55 61 61 58 55 58 58 58 58 61 61 61 65 61 52 26 19 10 23 48 48 48 48 55 58 52
23 32 42 52 55 58 55 65 68 65 65 65 68 68 58 55 55 52 52 58 58 52 52 58 48 58 58 58 58 52 52 42 19 23 16 19 39 39 42 45 42 55 52
19 26 39 48 52 48 45 45 55 61 61 58 55 52 55 48 39 58 45 58 55 55 55 42 45 48 58 52 48 48 48 23 19 19 16 32 39 35 35 42 35 35 42
23 23 29 32 32 32 35 58 61 58 58 55 58 52 58 68 55 32 48 48 48 42 45 48 42 42 42 35 42 52 35 26 29 29 39 39 42 39 39 39 35 35 35
10 16 29 29 35 39 52 48 58 55 55 52 48 48 61 35 42 39 42 58 58 55 45 45 35 32 29 42 48 42 32 16 23 26 48 42 35 42 42 42 35 35 39
19 23 23 35 42 48 48 39 42 45 52 42 48 52 45 45 35 29 58 48 42 52 48 42 42 29 35 42 45 42 32 29 23 23 52 42 45 39 42 39 39 32 39
13 16 23 23 39 45 58 48 32 42 45 39 42 48 35 35 32 32 45 55 35 32 39 42 32 35 42 39 39 39 39 32 26 19 42 48 48 45 42 45 42 29 32
13 16 23 23 35 48 55 58 45 32 48 39 39 45 48 39 42 52 58 61 45 39 42 52 39 48 52 52 45 48 42 32 42 35 32 35 45 39 42 39 39 42 39
13 19 29 26 32 45 48 52 39 39 32 45 45 52 48 45 55 52 52 52 45 39 45 55 48 39 39 42 42 35 39 42 39 48 42 39 45 35 39 39 39 35 32
19 29 32 16 23 42 48 58 45 35 35 48 58 55 58 55 52 55 48 52 48 42 42 52 45 45 48 48 42 39 35 45 35 39 32 32 35 29 35 35 39 35 32
32 35 42 29 29 39 55 55 52 55 58 52 58 61 65 58 55 58 58 55 52 52 52 42 39 32 42 42 35 42 32 39 35 29 35 35 32 35 39 39 35 35 29
39 42 45 45 55 58 55 55 55 55 52 48 55 68 65 68 61 65 61 58 55 55 55 55 58 55 48 45 23 29 29 32 29 23 29 32 35 35 32 29 32 29 35
42 45 52 48 55 65 48 45 52 52 52 48 48 58 61 68 65 65 55 58 58 58 61 58 52 45 45 42 35 35 42 23 19 26 29 32 32 35 39 32 32 32 29
42 48 55 55 58 65 58 65 65 61 52 45 42 52 58 61 61 52 65 58 55 61 65 58 52 42 35 32 35 39 16 26 26 16 26 35 32 35 32 29 42 39 39
35 42 39 55 61 61 58 55 52 58 55 48 48 48 52 52 55 55 55 55 52 48 52 52 48 45 39 45 35 26 26 23 19 19 26 26 32 39 32 29 29 29 32
35 35 45 58 65 65 65 58 55 55 45 55 55 45 52 52 52 52 52 58 55 52 61 48 45 45 45 45 39 42 39 23 19 19 26 19 23 32 39 26 26 29 35
35 35 39 58 68 68 65 68 65 55 52 39 55 58 55 55 52 52 52 58 55 58 55 52 48 48 48 45 42 32 29 42 29 23 26 32 23 26 23 29 26 23 26
39 32 35 58 68 68 65 61 61 58 61 58 52 52 52 55 55 48 48 55 55 55 58 48 48 45 45 45 42 35 35 39 35 26 32 35 35 29 23 26 19 23 29
Height
5892 5891 5891 5891 5890 5890 5890 5890 5890 5890 5890 5890 5890 5891 5892 5892 5893 5894 5894 5895 5896 5897 5898 5899 5899 5900 5901 5901 5902 5903 5903 5904 5904 5905 5906 5906 5907 5907 5908 5908 5908 5908 5908
5894 5893 5892 5892 5892 5892 5892 5892 5891 5891 5891 5891 5891 5891 5892 5893 5894 5894 5895 5896 5897 5898 5898 5899 5900 5901 5901 5902 5903 5903 5904 5904 5905 5906 5906 5907 5907 5908 5908 5908 5908 5908 5908
5895 5894 5894 5894 5894 5894 5893 5893 5893 5892 5892 5891 5891 5892 5892 5893 5894 5895 5895 5896 5897 5898 5899 5900 5901 5901 5902 5903 5903 5904 5904 5905 5906 5906 5907 5907 5908 5908 5908 5908 5908 5908 5909
5897 5896 5896 5895 5895 5895 5895 5895 5894 5894 5893 5893 5893 5893 5893 5894 5895 5895 5896 5897 5898 5899 5899 5900 5901 5902 5903 5903 5904 5904 5905 5905 5906 5906 5907 5907 5908 5908 5908 5909 5909 5909 5909
5898 5897 5897 5896 5897 5897 5896 5896 5896 5896 5895 5895 5894 5894 5894 5895 5895 5896 5897 5897 5898 5899 5900 5900 5901 5902 5903 5904 5904 5905 5905 5906 5906 5906 5907 5907 5908 5908 5908 5909 5909 5909 5909
5900 5899 5899 5898 5898 5898 5898 5898 5897 5897 5897 5897 5897 5896 5896 5896 5896 5897 5897 5898 5898 5899 5900 5900 5901 5902 5903 5904 5904 5905 5905 5906 5906 5907 5907 5907 5908 5908 5908 5909 5909 5909 5909
5901 5901 5901 5900 5900 5900 5900 5899 5899 5899 5899 5898 5898 5898 5898 5898 5897 5897 5897 5898 5899 5899 5900 5901 5901 5902 5903 5904 5904 5905 5905 5906 5906 5906 5907 5907 5908 5908 5909 5909 5909 5909 5909
5903 5903 5902 5902 5902 5902 5901 5901 5901 5900 5900 5900 5900 5899 5899 5899 5898 5898 5898 5899 5899 5899 5900 5901 5901 5902 5903 5903 5904 5904 5905 5905 5906 5906 5906 5907 5907 5908 5908 5908 5908 5908 5908
5904 5904 5904 5904 5904 5903 5903 5903 5902 5902 5901 5901 5901 5900 5900 5900 5900 5899 5899 5899 5899 5899 5900 5901 5901 5902 5902 5902 5903 5904 5904 5905 5905 5905 5906 5906 5907 5907 5907 5907 5908 5908 5908
5906 5906 5906 5905 5905 5905 5905 5904 5904 5903 5903 5902 5902 5901 5901 5901 5900 5900 5899 5899 5899 5900 5900 5901 5901 5901 5902 5902 5903 5903 5904 5904 5904 5905 5905 5906 5906 5906 5906 5906 5907 5907 5907
5908 5908 5908 5907 5907 5906 5906 5906 5905 5904 5904 5903 5903 5902 5902 5902 5901 5900 5900 5900 5900 5899 5900 5900 5901 5901 5902 5902 5902 5902 5903 5903 5903 5904 5904 5905 5905 5905 5905 5905 5906 5906 5906
5910 5910 5909 5909 5908 5908 5907 5907 5906 5906 5905 5904 5904 5903 5903 5902 5902 5901 5900 5900 5900 5900 5899 5900 5900 5901 5901 5901 5902 5902 5902 5903 5903 5903 5903 5904 5904 5904 5904 5904 5904 5905 5905
5912 5912 5911 5910 5910 5909 5909 5908 5908 5907 5906 5905 5905 5904 5904 5903 5902 5902 5901 5901 5901 5900 5900 5900 5900 5900 5900 5901 5901 5901 5901 5901 5902 5902 5902 5902 5903 5903 5902 5903 5903 5903 5904
5914 5913 5912 5912 5911 5911 5910 5909 5908 5908 5907 5906 5906 5905 5904 5904 5903 5903 5902 5901 5901 5901 5900 5900 5899 5899 5900 5900 5900 5900 5900 5900 5900 5901 5900 5901 5901 5901 5901 5901 5901 5901 5902
5915 5914 5914 5913 5912 5912 5911 5910 5909 5908 5908 5907 5907 5906 5905 5904 5903 5903 5902 5901 5901 5901 5900 5900 5899 5899 5899 5899 5899 5899 5899 5899 5899 5899 5898 5899 5899 5898 5898 5899 5899 5899 5900
5916 5916 5915 5914 5913 5912 5912 5911 5910 5909 5908 5907 5907 5906 5905 5904 5904 5903 5902 5901 5901 5900 5900 5899 5899 5898 5898 5898 5898 5898 5898 5898 5897 5897 5897 5897 5897 5897 5897 5897 5897 5897 5897
5917 5917 5916 5915 5914 5913 5912 5911 5910 5909 5908 5907 5906 5906 5905 5904 5904 5903 5902 5901 5900 5900 5899 5899 5898 5897 5897 5897 5897 5896 5896 5896 5896 5895 5895 5894 5894 5894 5894 5894 5894 5894 5894
5918 5917 5917 5916 5915 5914 5913 5912 5911 5910 5909 5908 5907 5906 5905 5905 5904 5903 5902 5901 5900 5899 5899 5898 5897 5896 5896 5896 5895 5895 5894 5894 5894 5893 5893 5892 5892 5892 5892 5892 5891 5891 5891
5919 5918 5917 5916 5915 5914 5913 5912 5911 5910 5909 5908 5907 5906 5905 5905 5904 5903 5902 5901 5899 5899 5898 5897 5896 5895 5894 5894 5893 5893 5892 5892 5891 5891 5890 5890 5889 5889 5888 5888 5888 5888 5888
5919 5918 5917 5916 5915 5914 5913 5912 5911 5910 5909 5908 5907 5906 5906 5905 5903 5902 5901 5900 5899 5898 5897 5895 5894 5893 5892 5892 5891 5891 5890 5889 5889 5889 5888 5887 5886 5886 5886 5885 5885 5884 5884
5919 5918 5917 5916 5915 5914 5914 5912 5912 5911 5910 5908 5907 5906 5905 5904 5903 5902 5900 5899 5898 5896 5895 5893 5892 5891 5890 5890 5889 5888 5887 5887 5886 5886 5885 5884 5884 5883 5882 5882 5881 5881 5881
5919 5918 5917 5916 5915 5914 5913 5912 5911 5910 5909 5908 5907 5906 5905 5903 5902 5901 5899 5898 5896 5895 5893 5891 5890 5889 5888 5887 5887 5886 5885 5885 5883 5882 5882 5881 5880 5880 5879 5879 5878 5877 5877
5918 5917 5916 5916 5915 5914 5913 5912 5911 5910 5909 5908 5907 5905 5904 5903 5901 5900 5898 5897 5895 5894 5892 5890 5888 5887 5886 5885 5884 5883 5882 5881 5880 5879 5878 5878 5877 5876 5876 5875 5874 5874 5873
5917 5916 5915 5914 5914 5913 5912 5911 5910 5909 5908 5907 5906 5904 5903 5902 5900 5898 5897 5895 5894 5892 5890 5888 5886 5885 5884 5883 5882 5880 5880 5878 5877 5876 5875 5874 5873 5873 5872 5871 5870 5870 5869
5916 5915 5914 5913 5912 5911 5910 5909 5909 5908 5907 5905 5904 5903 5901 5900 5898 5897 5895 5893 5892 5890 5888 5886 5884 5883 5882 5880 5879 5878 5876 5875 5874 5873 5871 5871 5870 5868 5867 5866 5866 5865 5864
5914 5913 5913 5912 5911 5910 5909 5908 5907 5906 5905 5903 5902 5901 5899 5898 5896 5895 5893 5891 5889 5887 5885 5884 5882 5880 5879 5878 5876 5874 5873 5871 5870 5869 5867 5866 5865 5864 5863 5861 5861 5860 5859
Wind_Speed
10 10 11 11 10 10 10 10 10 10 10 9 10 10 11 11 11 12 12 12 11 11 11 11 10 10 9 8 8 7 7 7 8 7 7 6 5 5 4 4 4 3 3
11 11 11 11 11 11 11 11 11 10 10 10 9 10 11 10 10 11 11 12 11 10 10 10 9 9 8 8 7 7 7 7 7 6 6 5 5 4 4 4 3 3 3
11 11 11 11 11 11 11 12 11 11 11 11 10 10 11 11 10 10 10 11 11 10 9 9 9 8 8 8 7 7 6 6 6 6 6 5 5 4 3 3 3 3 3
11 11 11 11 11 11 12 12 12 11 11 11 10 10 10 10 10 10 9 10 10 9 9 8 8 7 8 7 6 6 5 5 5 6 5 4 4 3 3 3 3 3 3
11 11 11 11 11 11 12 12 11 11 11 10 10 10 9 9 9 9 9 8 8 8 8 8 8 7 7 7 6 6 5 5 5 5 4 4 3 3 3 3 3 3 3
10 10 10 10 10 10 10 11 11 11 11 11 10 10 10 9 9 8 8 8 8 8 8 8 8 8 7 7 6 5 5 5 4 4 4 4 4 4 4 3 4 3 3
10 10 10 10 10 10 10 10 10 10 10 10 10 9 9 8 7 7 7 7 7 8 8 7 8 7 7 7 6 5 5 4 4 4 4 4 4 4 4 4 4 4 3
10 10 10 10 10 10 9 9 9 9 9 8 8 8 8 7 6 6 5 5 6 6 7 7 7 7 6 6 6 5 4 4 5 5 4 4 4 4 4 4 4 4 4
11 10 10 9 10 10 9 9 9 8 8 8 7 7 7 6 5 5 5 5 5 5 6 7 7 7 7 6 6 6 5 5 5 5 4 4 5 4 4 4 4 5 4
11 10 9 9 10 10 9 9 8 8 8 7 7 7 6 6 5 5 4 4 4 3 4 5 6 6 6 6 6 6 6 5 5 5 5 5 5 5 4 4 4 5 5
10 10 9 9 9 9 9 9 8 8 7 7 7 6 6 5 4 4 4 3 4 3 3 3 4 4 5 6 5 6 6 6 6 5 5 5 5 6 5 5 5 5 5
9 9 8 8 8 8 8 8 8 7 7 6 6 5 5 4 3 3 3 3 3 2 3 2 3 4 5 5 5 5 6 6 6 6 7 7 6 6 6 6 7 6 6
8 8 7 7 7 7 7 8 7 7 6 5 5 4 4 4 3 2 2 2 2 1 2 3 4 4 4 5 6 7 7 7 8 8 8 8 8 8 8 8 8 8 8
8 8 7 7 7 7 7 6 6 6 6 5 4 4 4 3 3 2 2 2 1 0 1 3 4 5 5 5 6 6 7 7 8 9 9 9 9 9 9 9 9 9 10
8 7 7 6 6 6 6 6 5 5 4 4 4 4 4 4 3 3 2 1 0 1 1 2 3 4 5 5 6 7 8 7 8 8 9 9 10 9 9 10 11 11 11
7 7 6 6 5 5 5 5 4 4 4 4 3 3 3 3 3 2 1 1 2 2 2 2 3 4 4 5 6 6 8 9 9 9 10 11 11 11 10 11 11 11 12
5 6 6 5 5 5 4 4 4 3 3 3 3 3 3 3 3 3 3 3 3 3 3 4 4 4 5 5 7 8 9 9 10 11 11 12 12 12 12 11 11 11 12
4 4 5 5 5 5 4 4 4 4 4 3 3 3 3 3 3 4 3 4 4 4 4 4 5 5 6 7 8 9 9 10 10 11 12 13 13 13 13 13 13 13 13
3 3 3 3 3 3 3 3 3 3 3 3 3 4 4 4 4 4 4 5 5 5 5 6 6 7 7 8 9 9 10 11 12 12 13 13 14 15 15 15 15 15 14
2 2 2 2 3 2 2 2 2 2 2 2 2 3 3 4 5 5 5 6 6 6 7 7 8 8 8 9 9 10 11 11 12 13 13 14 14 15 15 16 16 16 15
2 2 2 2 3 3 2 2 2 2 2 2 3 3 4 5 5 6 6 7 7 8 9 9 9 8 9 9 10 10 11 12 12 13 14 14 14 15 15 16 16 16 17
3 3 3 3 3 3 3 3 2 3 3 4 4 4 5 6 6 7 8 8 8 8 9 9 9 9 10 10 11 11 12 12 12 13 13 14 14 15 15 16 16 17 17
4 4 4 3 4 5 4 4 4 4 4 5 6 6 7 7 7 8 8 9 9 10 10 10 9 10 10 10 10 11 12 13 13 13 14 14 15 15 16 17 17 17 17
6 5 5 5 5 6 6 6 5 5 6 6 7 8 8 8 8 8 9 10 10 10 10 11 10 11 11 11 12 12 13 13 14 15 15 16 16 17 17 17 17 18 18
8 7 7 7 6 7 7 7 7 7 7 8 9 9 10 10 10 10 11 11 11 11 11 11 11 11 12 12 13 13 14 15 15 16 17 17 18 18 19 19 19 19 19
9 9 9 9 8 8 9 8 9 9 9 10 11 11 11 11 12 12 12 13 12 12 12 12 12 12 13 13 14 15 16 17 17 17 18 18 19 19 20 20 20 19 19
Wind_Direction
97 98 102 101 103 105 106 112 115 116 117 119 124 125 127 130 129 130 129 131 131 132 134 135 137 137 136 133 130 133 130 132 134 134 133 135 131 128 124 124 120 115 103
95 97 102 101 101 104 106 109 112 112 113 114 121 127 129 132 133 134 136 136 136 138 140 140 142 141 139 136 134 134 133 133 136 138 136 137 140 139 133 137 137 130 128
95 98 102 102 100 103 105 106 108 108 108 110 117 125 131 138 142 142 144 144 142 144 145 146 148 149 147 143 142 137 138 139 141 144 144 141 148 151 146 148 147 148 154
93 95 96 100 101 103 105 105 106 105 106 107 110 116 129 136 144 148 147 148 153 153 151 153 155 155 153 149 145 142 143 145 149 153 152 151 155 169 168 165 161 166 175
93 94 97 101 103 104 105 107 106 105 104 106 109 111 121 131 137 147 151 154 159 160 162 162 162 161 159 155 154 151 151 151 148 154 156 158 167 176 178 178 184 180 183
92 93 98 99 103 107 109 109 108 106 104 106 109 110 116 125 130 141 154 159 160 165 169 170 169 169 171 171 167 165 165 167 166 166 163 168 177 183 186 182 188 195 193
91 94 97 97 103 106 107 108 107 107 105 106 111 111 113 115 122 129 143 151 161 169 172 173 175 174 179 180 179 177 176 175 178 180 181 184 189 195 199 194 200 205 204
89 96 99 96 97 102 102 104 105 106 106 107 109 111 113 113 113 124 135 142 160 171 178 178 177 178 179 187 188 180 176 179 185 188 193 193 198 211 219 212 211 214 216
92 96 98 97 97 100 101 104 104 102 103 106 108 110 110 108 110 123 144 153 159 161 177 182 182 185 188 191 196 196 195 195 199 195 202 205 207 215 225 223 225 223 224
95 97 97 99 98 98 100 102 102 101 98 101 106 109 107 102 102 107 124 149 157 157 163 171 176 190 196 198 203 208 209 209 211 209 212 209 213 219 225 231 231 234 233
96 96 96 96 96 95 98 100 99 96 93 98 103 106 106 103 96 96 101 119 141 151 166 174 179 192 204 205 211 211 211 216 220 217 219 217 223 231 237 242 241 234 238
95 95 97 95 94 94 95 96 95 93 90 94 99 97 99 99 92 91 101 105 106 137 164 175 198 205 213 219 221 215 218 228 235 235 233 230 237 241 240 245 248 242 242
91 88 92 92 91 90 91 91 89 89 89 91 95 91 85 80 81 94 116 117 121 157 183 218 224 219 221 233 233 233 228 238 240 245 243 245 249 249 247 246 248 249 249
88 83 83 87 87 85 86 84 81 80 81 83 86 86 82 74 80 97 109 119 127 202 252 238 232 225 224 233 240 246 245 253 252 252 256 256 257 254 253 251 252 251 252
81 78 80 82 82 78 78 77 74 75 78 80 80 78 74 68 75 82 81 93 241 262 260 242 247 244 240 245 248 253 256 257 258 260 258 263 266 263 261 258 256 256 255
81 78 79 80 77 75 73 70 64 62 67 72 75 69 59 54 52 43 15 348 317 294 282 276 283 275 261 255 255 258 261 263 261 261 262 264 266 265 264 262 259 257 258
81 78 75 76 75 71 67 64 59 56 60 67 70 64 55 45 39 28 6 353 335 316 304 293 287 278 270 267 264 260 264 268 268 268 268 270 269 269 269 268 266 261 259
71 69 72 72 71 67 61 56 57 51 50 59 57 48 33 15 8 356 347 341 336 325 309 303 294 286 277 274 272 270 270 272 275 274 274 273 271 268 268 268 270 268 265
57 52 55 58 58 54 52 49 50 44 41 42 35 29 25 11 1 356 344 339 334 327 313 303 295 289 282 278 276 275 276 276 277 277 277 276 273 269 268 269 269 269 270
30 29 35 33 31 22 23 23 21 22 25 27 17 12 6 359 354 346 333 332 329 325 319 310 300 293 288 286 284 280 278 279 279 277 277 278 276 272 272 272 271 269 270
332 340 350 357 0 357 360 5 3 354 351 353 353 349 346 342 341 338 327 320 320 318 318 312 303 295 294 291 291 288 284 283 281 279 280 280 279 275 276 275 276 273 271
298 310 314 319 331 340 340 338 333 330 330 327 327 328 328 328 331 336 331 322 320 317 313 310 302 299 298 297 295 290 287 285 285 283 282 281 280 278 277 277 279 278 274
285 286 286 292 300 309 316 314 312 315 317 314 312 314 317 321 325 326 325 325 322 323 320 315 308 304 299 295 293 291 290 289 288 287 285 283 281 280 277 276 278 277 277
281 277 276 284 291 298 300 300 299 303 303 303 302 304 306 312 317 319 321 322 319 318 318 317 307 304 302 298 296 292 291 290 291 291 288 285 282 279 277 276 277 276 276
276 281 280 283 288 292 295 294 294 295 297 295 294 295 298 305 310 312 313 317 316 312 312 314 309 300 299 298 297 294 292 290 289 289 289 287 285 283 279 277 277 276 276
272 281 286 288 287 288 291 291 293 292 297 300 299 297 297 299 303 307 309 308 308 307 306 307 308 306 301 299 296 293 292 291 290 289 289 288 286 285 283 281 279 278 276